GFSCGP_prec_precacc24_132.txt.gz
Total_Precipitation_Accumulation
0.00 0.00 0.00 0.00 0.00 0.01 0.07 0.28 0.80 0.72 0.74 1.57 1.92 1.47 0.47 0.24 0.44 0.14 0.04 0.01 0.00 0.00 0.00 0.00 0.00 0.00 0.00 0.00 0.00 0.02 0.08 0.05 0.00 0.00 0.01 0.01 0.00 0.00 0.00 0.00 0.00 0.04 0.11 0.13
0.00 0.00 0.00 0.00 0.00 0.02 0.02 0.32 0.68 0.69 0.52 0.70 1.49 1.35 0.77 0.27 0.33 0.13 0.04 0.01 0.00 0.00 0.00 0.00 0.00 0.00 0.00 0.00 0.00 0.06 0.10 0.05 0.03 0.01 0.01 0.01 0.02 0.02 0.09 0.06 0.05 0.08 0.09 0.10
0.00 0.00 0.00 0.00 0.00 0.00 0.05 0.25 0.51 0.64 0.38 0.37 0.52 1.43 1.01 0.39 0.36 0.29 0.06 0.01 0.01 0.01 0.01 0.00 0.00 0.00 0.00 0.00 0.00 0.01 0.03 0.06 0.07 0.05 0.03 0.05 0.17 0.22 0.28 0.21 0.06 0.04 0.06 0.05
0.00 0.00 0.00 0.00 0.00 0.00 0.09 0.19 0.60 1.28 0.70 0.53 0.23 0.71 1.33 0.63 0.40 0.45 0.13 0.07 0.02 0.02 0.01 0.00 0.00 0.00 0.00 0.00 0.00 0.00 0.02 0.06 0.06 0.11 0.10 0.10 0.10 0.14 0.09 0.06 0.06 0.03 0.05 0.05
0.00 0.00 0.00 0.00 0.00 0.00 0.02 0.16 0.55 0.66 0.59 0.22 0.10 0.26 0.51 0.59 0.51 0.30 0.15 0.06 0.05 0.02 0.01 0.02 0.00 0.00 0.00 0.00 0.00 0.00 0.00 0.07 0.07 0.16 0.18 0.14 0.05 0.02 0.04 0.06 0.12 0.13 0.09 0.09
0.00 0.00 0.00 0.00 0.00 0.00 0.01 0.08 0.29 0.48 0.35 0.31 0.07 0.09 0.14 0.18 0.17 0.11 0.07 0.02 0.05 0.04 0.01 0.02 0.03 0.01 0.02 0.00 0.00 0.00 0.00 0.02 0.14 0.19 0.15 0.22 0.23 0.33 0.14 0.11 0.07 0.03 0.03 0.03
0.00 0.00 0.00 0.00 0.00 0.00 0.00 0.05 0.29 0.32 0.25 0.38 0.13 0.17 0.10 0.01 0.01 0.03 0.03 0.02 0.04 0.03 0.01 0.01 0.04 0.03 0.02 0.02 0.03 0.00 0.00 0.00 0.02 0.03 0.06 0.12 0.20 0.33 0.19 0.20 0.12 0.14 0.08 0.04
0.00 0.00 0.00 0.00 0.00 0.00 0.00 0.01 0.12 0.26 0.27 0.34 0.25 0.55 0.12 0.01 0.00 0.01 0.00 0.02 0.05 0.03 0.02 0.02 0.01 0.03 0.04 0.01 0.05 0.00 0.00 0.00 0.00 0.00 0.02 0.09 0.19 0.11 0.08 0.13 0.27 0.10 0.03 0.02
0.00 0.00 0.00 0.00 0.00 0.00 0.00 0.01 0.04 0.09 0.15 0.24 0.21 0.50 0.18 0.03 0.00 0.01 0.02 0.01 0.03 0.03 0.04 0.03 0.00 0.01 0.05 0.02 0.05 0.04 0.03 0.00 0.00 0.00 0.00 0.01 0.04 0.02 0.13 0.22 0.38 0.21 0.12 0.07
0.00 0.00 0.00 0.00 0.00 0.01 0.00 0.01 0.03 0.04 0.17 0.11 0.15 0.32 0.62 0.09 0.00 0.01 0.03 0.02 0.01 0.03 0.04 0.04 0.04 0.01 0.02 0.01 0.02 0.03 0.03 0.01 0.00 0.00 0.00 0.00 0.00 0.01 0.10 0.14 0.13 0.16 0.46 0.74
0.00 0.00 0.01 0.00 0.02 0.02 0.01 0.00 0.01 0.01 0.05 0.14 0.10 0.13 0.17 0.12 0.09 0.04 0.06 0.04 0.02 0.01 0.01 0.01 0.02 0.03 0.02 0.02 0.00 0.00 0.00 0.01 0.00 0.00 0.00 0.00 0.00 0.00 0.02 0.05 0.07 0.15 0.31 0.27
0.00 0.00 0.00 0.00 0.01 0.01 0.02 0.03 0.01 0.00 0.01 0.01 0.03 0.03 0.04 0.10 0.11 0.04 0.05 0.07 0.05 0.05 0.02 0.03 0.03 0.09 0.12 0.02 0.03 0.28 0.14 0.01 0.00 0.00 0.00 0.00 0.00 0.00 0.00 0.00 0.01 0.08 0.25 0.23
0.00 0.00 0.01 0.04 0.02 0.01 0.00 0.00 0.00 0.00 0.04 0.02 0.00 0.01 0.00 0.00 0.00 0.00 0.00 0.05 0.10 0.13 0.09 0.07 0.05 0.10 0.58 0.20 0.17 0.26 0.31 0.29 0.17 0.06 0.03 0.10 0.15 0.01 0.00 0.00 0.04 0.07 0.12 0.14
0.00 0.00 0.00 0.01 0.02 0.01 0.00 0.00 0.00 0.00 0.00 0.00 0.00 0.00 0.00 0.00 0.01 0.00 0.00 0.01 0.06 0.13 0.14 0.08 0.09 0.10 0.57 0.86 0.43 0.40 0.23 0.36 0.85 0.41 0.32 0.38 0.33 0.14 0.12 0.05 0.02 0.05 0.08 0.04
0.00 0.00 0.00 0.00 0.00 0.00 0.00 0.00 0.00 0.00 0.00 0.01 0.00 0.00 0.02 0.03 0.08 0.07 0.10 0.08 0.11 0.23 0.22 0.27 0.26 0.21 0.19 0.70 0.37 0.94 0.61 0.54 0.53 0.56 0.51 0.62 0.54 0.45 0.42 0.40 0.42 0.18 0.15 0.11
0.00 0.00 0.00 0.00 0.00 0.00 0.00 0.00 0.00 0.00 0.00 0.01 0.02 0.01 0.04 0.36 0.33 0.28 0.31 0.38 0.25 0.29 0.44 0.47 0.82 0.81 0.57 0.30 0.26 0.29 0.43 0.33 0.35 0.36 0.37 0.43 0.53 0.94 0.94 0.80 0.81 0.95 0.66 0.48
0.00 0.00 0.00 0.00 0.00 0.00 0.00 0.00 0.00 0.00 0.01 0.03 0.09 0.11 0.11 0.29 0.58 0.63 0.38 0.73 1.24 0.86 0.70 0.68 0.64 0.94 0.90 0.57 0.39 0.25 0.27 0.30 0.41 0.53 0.43 0.39 0.33 0.51 0.67 0.86 1.05 1.30 1.11 0.88
0.00 0.00 0.00 0.02 0.05 0.04 0.03 0.00 0.00 0.00 0.01 0.05 0.16 0.12 0.16 0.31 0.13 0.14 0.14 0.15 0.51 0.76 0.96 1.13 0.90 0.87 0.71 0.72 0.67 0.49 0.51 0.55 0.58 0.52 0.51 0.43 0.43 0.48 0.62 0.75 0.64 0.59 0.81 1.08
0.00 0.00 0.00 0.01 0.18 0.13 0.04 0.00 0.00 0.00 0.05 0.07 0.06 0.22 0.55 0.56 0.26 0.13 0.14 0.12 0.12 0.33 0.34 0.58 0.85 1.05 1.36 1.09 1.18 0.89 0.94 0.82 0.83 0.75 0.54 0.41 0.45 0.72 0.61 0.58 0.86 0.98 0.61 0.41
0.00 0.00 0.00 0.01 0.05 0.30 0.33 0.13 0.00 0.00 0.07 0.15 0.13 0.22 0.44 0.34 0.32 0.13 0.10 0.06 0.09 0.12 0.19 0.19 0.23 0.59 1.00 1.65 1.60 1.64 1.73 1.63 1.10 0.90 0.86 0.68 0.56 0.62 0.89 1.20 1.09 0.92 1.22 1.29
0.04 0.00 0.00 0.00 0.04 0.15 0.09 0.05 0.01 0.05 0.10 0.00 0.02 0.20 0.19 0.28 0.26 0.37 0.16 0.07 0.03 0.04 0.05 0.06 0.05 0.16 0.48 0.76 1.09 1.29 1.18 1.32 1.66 1.47 1.37 1.19 0.99 0.86 0.71 0.62 0.62 0.64 0.50 0.41
0.16 0.07 0.02 0.02 0.06 0.15 0.06 0.16 0.09 0.08 0.02 0.00 0.03 0.20 0.34 0.24 0.26 0.13 0.09 0.05 0.03 0.02 0.03 0.04 0.06 0.15 0.22 0.41 0.68 0.82 0.74 0.82 1.37 1.66 1.91 2.21 2.13 1.88 1.25 0.92 0.86 0.85 0.72 0.58
0.00 0.00 0.00 0.08 0.18 0.03 0.00 0.00 0.00 0.01 0.04 0.03 0.02 0.16 0.36 0.27 0.16 0.15 0.13 0.08 0.07 0.05 0.03 0.04 0.08 0.10 0.21 0.25 0.30 0.40 0.54 0.66 0.55 0.80 1.10 1.32 1.85 1.84 1.23 0.84 0.78 0.81 0.84 0.70
0.00 0.00 0.00 0.01 0.01 0.04 0.01 0.00 0.00 0.00 0.00 0.00 0.01 0.09 0.21 0.12 0.05 0.06 0.07 0.13 0.12 0.08 0.06 0.06 0.07 0.08 0.08 0.14 0.18 0.20 0.23 0.21 0.14 0.16 0.31 0.30 0.32 0.50 0.48 0.38 0.31 0.30 0.30 0.31
0.00 0.00 0.00 0.00 0.01 0.01 0.00 0.00 0.00 0.00 0.00 0.00 0.01 0.02 0.04 0.03 0.03 0.08 0.07 0.06 0.08 0.11 0.08 0.04 0.02 0.02 0.02 0.05 0.11 0.09 0.13 0.19 0.17 0.15 0.11 0.20 0.28 0.42 0.52 0.62 0.54 0.29 0.15 0.15
0.00 0.00 0.00 0.02 0.01 0.01 0.01 0.01 0.00 0.00 0.00 0.00 0.00 0.01 0.05 0.02 0.02 0.04 0.04 0.03 0.03 0.04 0.05 0.03 0.01 0.00 0.00 0.00 0.02 0.05 0.06 0.12 0.09 0.10 0.08 0.11 0.10 0.11 0.18 0.22 0.42 0.55 0.66 0.46

GFSCGP_prec_precacc24_135.txt.gz
Total_Precipitation_Accumulation
0.00 0.00 0.00 0.00 0.00 0.00 0.04 0.22 0.69 0.66 0.60 0.99 1.26 1.27 0.38 0.23 0.39 0.16 0.06 0.02 0.00 0.00 0.00 0.00 0.00 0.00 0.00 0.00 0.00 0.03 0.15 0.14 0.01 0.00 0.01 0.01 0.00 0.00 0.00 0.00 0.00 0.04 0.12 0.15
0.00 0.00 0.00 0.00 0.00 0.02 0.02 0.18 0.51 0.58 0.35 0.42 0.59 0.91 0.71 0.29 0.34 0.15 0.04 0.02 0.01 0.00 0.01 0.00 0.00 0.00 0.00 0.00 0.00 0.10 0.18 0.12 0.03 0.01 0.01 0.01 0.01 0.02 0.09 0.06 0.05 0.08 0.06 0.08
0.00 0.00 0.00 0.00 0.00 0.00 0.04 0.18 0.44 0.59 0.33 0.30 0.33 0.89 0.74 0.34 0.39 0.30 0.06 0.02 0.01 0.00 0.03 0.00 0.00 0.00 0.00 0.00 0.00 0.01 0.04 0.08 0.08 0.04 0.03 0.06 0.13 0.16 0.22 0.18 0.06 0.04 0.05 0.05
0.00 0.00 0.00 0.00 0.00 0.00 0.09 0.18 0.37 1.20 0.63 0.48 0.22 0.53 0.80 0.46 0.30 0.44 0.12 0.07 0.02 0.02 0.00 0.00 0.00 0.00 0.00 0.00 0.00 0.00 0.03 0.08 0.08 0.10 0.08 0.07 0.04 0.08 0.08 0.06 0.06 0.02 0.03 0.05
0.00 0.00 0.00 0.00 0.00 0.00 0.02 0.16 0.31 0.62 0.58 0.21 0.10 0.22 0.32 0.38 0.32 0.29 0.14 0.05 0.04 0.02 0.00 0.01 0.00 0.00 0.00 0.00 0.00 0.00 0.01 0.10 0.07 0.16 0.12 0.12 0.05 0.02 0.04 0.05 0.08 0.08 0.08 0.09
0.00 0.00 0.00 0.00 0.00 0.00 0.01 0.08 0.29 0.47 0.34 0.29 0.06 0.08 0.22 0.18 0.12 0.10 0.05 0.02 0.05 0.02 0.01 0.02 0.03 0.01 0.01 0.00 0.00 0.00 0.00 0.02 0.13 0.16 0.17 0.19 0.18 0.30 0.10 0.11 0.06 0.03 0.03 0.03
0.00 0.00 0.00 0.00 0.00 0.00 0.00 0.04 0.24 0.27 0.23 0.35 0.14 0.17 0.13 0.04 0.01 0.03 0.03 0.01 0.04 0.03 0.01 0.01 0.04 0.03 0.02 0.02 0.03 0.00 0.00 0.00 0.02 0.03 0.05 0.11 0.19 0.33 0.19 0.21 0.12 0.14 0.08 0.03
0.00 0.00 0.00 0.00 0.00 0.00 0.00 0.00 0.10 0.22 0.26 0.35 0.27 0.55 0.15 0.01 0.00 0.00 0.00 0.02 0.05 0.04 0.02 0.02 0.01 0.02 0.04 0.01 0.05 0.00 0.00 0.00 0.00 0.00 0.01 0.11 0.20 0.13 0.08 0.12 0.15 0.08 0.02 0.02
0.00 0.00 0.00 0.00 0.00 0.00 0.00 0.01 0.04 0.08 0.15 0.23 0.25 0.51 0.20 0.03 0.00 0.01 0.02 0.01 0.03 0.03 0.04 0.04 0.00 0.01 0.05 0.02 0.05 0.04 0.03 0.00 0.00 0.00 0.00 0.06 0.10 0.03 0.09 0.17 0.31 0.19 0.11 0.07
0.00 0.00 0.00 0.00 0.00 0.01 0.00 0.01 0.03 0.04 0.20 0.14 0.20 0.47 0.68 0.09 0.00 0.01 0.03 0.00 0.01 0.03 0.04 0.04 0.04 0.01 0.02 0.01 0.02 0.03 0.03 0.01 0.00 0.00 0.00 0.00 0.00 0.01 0.11 0.17 0.15 0.12 0.33 0.68
0.00 0.00 0.01 0.00 0.02 0.03 0.01 0.00 0.01 0.01 0.07 0.21 0.17 0.29 0.17 0.12 0.09 0.04 0.06 0.03 0.02 0.01 0.01 0.01 0.02 0.03 0.02 0.02 0.00 0.00 0.00 0.01 0.00 0.00 0.00 0.00 0.00 0.00 0.04 0.06 0.07 0.18 0.31 0.24
0.00 0.00 0.00 0.00 0.02 0.09 0.11 0.06 0.05 0.01 0.02 0.06 0.13 0.21 0.07 0.10 0.11 0.04 0.05 0.07 0.05 0.05 0.03 0.04 0.05 0.09 0.12 0.02 0.03 0.28 0.14 0.01 0.00 0.00 0.00 0.00 0.00 0.00 0.00 0.00 0.01 0.14 0.29 0.22
0.00 0.00 0.01 0.04 0.02 0.01 0.00 0.02 0.17 0.14 0.13 0.04 0.05 0.04 0.01 0.00 0.00 0.00 0.00 0.05 0.10 0.13 0.10 0.11 0.18 0.15 0.58 0.20 0.17 0.26 0.31 0.28 0.13 0.04 0.03 0.09 0.12 0.01 0.00 0.00 0.04 0.09 0.18 0.16
0.00 0.00 0.00 0.03 0.06 0.03 0.02 0.00 0.00 0.05 0.07 0.02 0.01 0.02 0.14 0.01 0.01 0.00 0.00 0.01 0.06 0.12 0.14 0.14 0.25 0.34 0.58 0.85 0.46 0.39 0.21 0.33 0.82 0.32 0.21 0.26 0.26 0.13 0.11 0.05 0.02 0.05 0.10 0.09
0.00 0.00 0.00 0.00 0.00 0.00 0.02 0.02 0.00 0.00 0.00 0.02 0.28 0.03 0.13 0.04 0.08 0.07 0.10 0.08 0.11 0.23 0.32 0.38 0.35 0.26 0.19 0.68 0.37 0.96 0.63 0.52 0.53 0.57 0.46 0.48 0.40 0.35 0.32 0.33 0.39 0.18 0.15 0.12
0.00 0.00 0.00 0.00 0.00 0.00 0.00 0.00 0.00 0.00 0.00 0.01 0.20 0.23 0.05 0.32 0.33 0.28 0.30 0.42 0.33 0.35 0.42 0.51 0.83 0.88 0.62 0.31 0.27 0.37 0.51 0.39 0.41 0.43 0.42 0.42 0.46 0.83 0.83 0.73 0.78 0.94 0.67 0.47
0.00 0.00 0.00 0.00 0.01 0.00 0.00 0.00 0.00 0.00 0.01 0.03 0.11 0.25 0.11 0.22 0.57 0.63 0.38 0.73 1.30 1.05 0.84 0.65 0.58 0.94 0.88 0.56 0.38 0.29 0.36 0.36 0.46 0.53 0.45 0.40 0.30 0.47 0.61 0.81 1.04 1.31 1.17 0.96
0.00 0.00 0.00 0.02 0.02 0.06 0.04 0.00 0.00 0.00 0.01 0.05 0.16 0.12 0.16 0.31 0.13 0.14 0.14 0.15 0.52 0.82 1.16 1.15 0.93 0.89 0.74 0.72 0.63 0.51 0.56 0.58 0.60 0.55 0.53 0.46 0.41 0.43 0.51 0.57 0.53 0.59 0.88 1.24
0.00 0.00 0.00 0.01 0.12 0.04 0.02 0.00 0.00 0.00 0.03 0.06 0.06 0.22 0.55 0.56 0.26 0.14 0.14 0.12 0.12 0.33 0.36 0.69 1.14 1.12 1.39 1.11 1.16 0.93 1.02 0.89 0.89 0.82 0.57 0.47 0.49 0.73 0.62 0.54 0.86 1.06 0.68 0.49
0.00 0.00 0.00 0.01 0.05 0.22 0.10 0.09 0.00 0.00 0.04 0.09 0.13 0.22 0.44 0.34 0.34 0.21 0.09 0.06 0.09 0.13 0.19 0.19 0.26 0.63 1.00 1.61 1.60 1.76 1.93 1.75 1.22 1.06 0.98 0.78 0.63 0.64 0.92 1.24 1.15 0.99 1.33 1.40
0.03 0.00 0.00 0.00 0.04 0.14 0.07 0.02 0.00 0.04 0.07 0.00 0.02 0.20 0.16 0.28 0.27 0.37 0.15 0.06 0.03 0.04 0.05 0.06 0.05 0.16 0.46 0.72 1.04 1.31 1.27 1.43 1.87 1.66 1.59 1.41 1.12 0.93 0.75 0.65 0.64 0.66 0.52 0.45
0.16 0.07 0.02 0.02 0.04 0.12 0.06 0.16 0.06 0.03 0.02 0.00 0.03 0.20 0.33 0.21 0.20 0.13 0.09 0.04 0.02 0.02 0.03 0.04 0.06 0.15 0.21 0.40 0.67 0.83 0.81 0.90 1.53 2.00 2.22 2.44 2.29 1.96 1.29 0.94 0.87 0.86 0.78 0.65
0.00 0.00 0.00 0.08 0.15 0.02 0.00 0.00 0.00 0.01 0.04 0.03 0.02 0.16 0.36 0.26 0.16 0.14 0.13 0.05 0.03 0.05 0.03 0.04 0.08 0.09 0.18 0.24 0.30 0.40 0.55 0.68 0.65 1.01 1.32 1.41 1.94 1.94 1.25 0.85 0.78 0.82 0.88 0.84
0.00 0.00 0.00 0.00 0.01 0.04 0.01 0.00 0.00 0.00 0.00 0.00 0.01 0.09 0.21 0.11 0.04 0.03 0.03 0.07 0.06 0.06 0.05 0.06 0.07 0.08 0.07 0.13 0.20 0.23 0.23 0.29 0.16 0.17 0.33 0.34 0.36 0.52 0.48 0.39 0.31 0.30 0.30 0.32
0.00 0.00 0.00 0.00 0.01 0.01 0.00 0.00 0.00 0.00 0.00 0.00 0.01 0.02 0.04 0.02 0.02 0.04 0.02 0.03 0.06 0.10 0.08 0.04 0.02 0.02 0.02 0.05 0.13 0.12 0.14 0.25 0.19 0.18 0.14 0.21 0.28 0.42 0.52 0.62 0.54 0.29 0.16 0.15
0.00 0.00 0.00 0.00 0.00 0.00 0.01 0.01 0.00 0.00 0.00 0.00 0.00 0.01 0.04 0.02 0.01 0.01 0.01 0.01 0.01 0.03 0.04 0.03 0.01 0.00 0.00 0.01 0.03 0.07 0.09 0.15 0.11 0.11 0.08 0.12 0.10 0.11 0.20 0.22 0.42 0.55 0.68 0.47

GFSCGP_prec_precacc24_138.txt.gz
Total_Precipitation_Accumulation
0.00 0.00 0.00 0.00 0.00 0.00 0.03 0.16 0.39 0.63 0.44 0.65 0.72 0.79 0.34 0.22 0.39 0.16 0.06 0.02 0.02 0.04 0.01 0.00 0.01 0.00 0.00 0.00 0.02 0.07 0.16 0.16 0.01 0.00 0.01 0.01 0.00 0.00 0.00 0.00 0.00 0.11 0.27 0.15
0.00 0.00 0.00 0.00 0.00 0.01 0.02 0.16 0.35 0.39 0.20 0.22 0.35 0.48 0.57 0.26 0.32 0.14 0.05 0.05 0.03 0.01 0.04 0.01 0.01 0.00 0.00 0.00 0.00 0.13 0.20 0.14 0.03 0.01 0.00 0.01 0.00 0.02 0.08 0.05 0.05 0.09 0.09 0.08
0.00 0.00 0.00 0.00 0.00 0.00 0.04 0.14 0.21 0.37 0.21 0.19 0.16 0.30 0.39 0.28 0.27 0.17 0.06 0.03 0.01 0.00 0.07 0.08 0.00 0.00 0.00 0.00 0.00 0.01 0.05 0.09 0.07 0.02 0.00 0.01 0.07 0.14 0.22 0.18 0.06 0.04 0.05 0.05
0.00 0.00 0.00 0.00 0.00 0.00 0.09 0.16 0.18 0.33 0.42 0.39 0.19 0.33 0.33 0.30 0.20 0.13 0.07 0.06 0.01 0.01 0.13 0.06 0.00 0.00 0.00 0.00 0.00 0.00 0.04 0.10 0.11 0.09 0.03 0.03 0.02 0.06 0.08 0.05 0.05 0.01 0.03 0.05
0.00 0.00 0.00 0.00 0.00 0.00 0.02 0.16 0.16 0.29 0.37 0.17 0.08 0.15 0.18 0.27 0.31 0.18 0.07 0.05 0.04 0.02 0.05 0.03 0.03 0.00 0.00 0.00 0.00 0.00 0.02 0.13 0.11 0.17 0.12 0.10 0.02 0.01 0.04 0.05 0.07 0.07 0.08 0.09
0.00 0.00 0.00 0.00 0.00 0.00 0.01 0.08 0.23 0.20 0.17 0.20 0.05 0.06 0.22 0.37 0.24 0.11 0.05 0.02 0.04 0.02 0.01 0.02 0.07 0.00 0.00 0.00 0.00 0.00 0.01 0.05 0.10 0.17 0.17 0.13 0.06 0.03 0.07 0.07 0.03 0.03 0.03 0.03
0.00 0.00 0.00 0.00 0.00 0.00 0.00 0.04 0.16 0.16 0.17 0.27 0.13 0.16 0.17 0.07 0.02 0.03 0.06 0.01 0.04 0.02 0.00 0.02 0.02 0.00 0.00 0.00 0.03 0.00 0.00 0.01 0.03 0.02 0.06 0.06 0.08 0.09 0.16 0.16 0.10 0.11 0.07 0.03
0.00 0.00 0.00 0.00 0.00 0.00 0.00 0.00 0.06 0.12 0.20 0.32 0.25 0.54 0.16 0.02 0.00 0.00 0.01 0.04 0.05 0.03 0.01 0.02 0.01 0.01 0.00 0.00 0.04 0.00 0.00 0.00 0.01 0.02 0.04 0.11 0.18 0.13 0.11 0.09 0.06 0.04 0.01 0.02
0.00 0.00 0.00 0.00 0.00 0.00 0.00 0.01 0.04 0.05 0.08 0.18 0.14 0.30 0.18 0.01 0.00 0.00 0.00 0.04 0.03 0.02 0.02 0.04 0.00 0.00 0.00 0.00 0.05 0.04 0.03 0.00 0.00 0.00 0.04 0.09 0.11 0.03 0.05 0.11 0.13 0.08 0.07 0.04
0.00 0.00 0.00 0.00 0.00 0.01 0.00 0.01 0.03 0.03 0.15 0.14 0.23 0.68 0.68 0.15 0.20 0.00 0.00 0.01 0.01 0.03 0.04 0.05 0.03 0.03 0.00 0.00 0.02 0.03 0.03 0.01 0.00 0.00 0.00 0.00 0.00 0.00 0.13 0.19 0.21 0.08 0.21 0.16
0.00 0.00 0.01 0.00 0.02 0.03 0.01 0.00 0.01 0.01 0.07 0.21 0.25 0.56 0.61 0.17 0.07 0.06 0.04 0.01 0.00 0.01 0.01 0.01 0.02 0.04 0.06 0.02 0.00 0.00 0.00 0.01 0.00 0.00 0.00 0.01 0.01 0.00 0.08 0.11 0.13 0.18 0.18 0.16
0.00 0.00 0.01 0.01 0.03 0.09 0.12 0.07 0.06 0.02 0.16 0.16 0.19 0.37 0.35 0.16 0.15 0.04 0.03 0.03 0.01 0.03 0.03 0.05 0.05 0.07 0.06 0.02 0.01 0.05 0.05 0.01 0.00 0.00 0.00 0.00 0.01 0.01 0.02 0.02 0.03 0.14 0.26 0.19
0.00 0.00 0.01 0.04 0.07 0.03 0.00 0.02 0.17 0.14 0.14 0.06 0.08 0.07 0.05 0.09 0.10 0.01 0.00 0.03 0.06 0.09 0.07 0.11 0.18 0.18 0.18 0.17 0.16 0.19 0.10 0.10 0.06 0.02 0.02 0.06 0.04 0.01 0.00 0.02 0.06 0.12 0.18 0.14
0.00 0.00 0.00 0.03 0.08 0.07 0.02 0.02 0.00 0.05 0.09 0.03 0.01 0.04 0.26 0.34 0.31 0.07 0.00 0.01 0.03 0.09 0.10 0.13 0.28 0.85 0.75 0.52 0.52 0.45 0.13 0.14 0.65 0.29 0.16 0.18 0.14 0.08 0.09 0.05 0.03 0.11 0.16 0.11
0.00 0.00 0.00 0.00 0.00 0.00 0.02 0.02 0.02 0.01 0.01 0.04 0.28 0.04 0.60 0.31 0.14 0.07 0.11 0.09 0.11 0.20 0.29 0.35 0.32 0.48 0.89 1.35 0.99 1.60 1.04 0.52 0.44 0.49 0.38 0.38 0.23 0.18 0.19 0.24 0.37 0.20 0.23 0.22
0.00 0.00 0.00 0.00 0.00 0.00 0.00 0.00 0.01 0.04 0.12 0.06 0.24 0.31 0.19 0.15 0.12 0.21 0.30 0.45 0.37 0.31 0.32 0.42 0.68 0.87 0.85 0.72 0.59 0.77 1.39 1.42 0.67 0.52 0.47 0.45 0.41 0.69 0.63 0.50 0.58 0.83 0.64 0.50
0.00 0.00 0.00 0.00 0.01 0.00 0.00 0.00 0.00 0.00 0.02 0.03 0.12 0.52 0.41 0.35 0.14 0.23 0.33 0.73 1.31 1.00 0.76 0.51 0.45 0.86 0.84 0.67 0.54 0.39 0.47 0.76 0.78 0.83 0.69 0.48 0.32 0.42 0.52 0.60 0.73 1.01 1.05 0.94
0.00 0.00 0.00 0.00 0.01 0.06 0.05 0.05 0.01 0.01 0.01 0.05 0.17 0.24 0.34 0.19 0.12 0.12 0.14 0.14 0.52 0.83 1.13 1.00 0.81 0.83 0.68 0.65 0.63 0.53 0.55 0.56 0.64 0.62 0.54 0.49 0.44 0.41 0.41 0.48 0.44 0.47 0.82 1.15
0.00 0.00 0.00 0.00 0.01 0.02 0.01 0.04 0.01 0.00 0.01 0.02 0.05 0.16 0.41 0.26 0.19 0.12 0.13 0.12 0.11 0.32 0.35 0.76 1.23 1.07 1.38 1.10 1.09 0.89 0.96 0.81 0.84 0.85 0.62 0.51 0.57 0.81 0.69 0.52 0.73 0.89 0.56 0.42
0.00 0.00 0.00 0.00 0.01 0.05 0.02 0.01 0.00 0.00 0.03 0.01 0.06 0.11 0.46 0.13 0.19 0.26 0.08 0.05 0.09 0.12 0.19 0.18 0.26 0.65 0.98 1.58 1.59 1.74 1.90 1.71 1.19 1.10 1.09 0.87 0.73 0.82 1.03 1.32 1.18 1.00 1.34 1.41
0.00 0.00 0.00 0.00 0.02 0.02 0.01 0.01 0.00 0.00 0.03 0.01 0.01 0.04 0.06 0.05 0.06 0.23 0.12 0.06 0.02 0.03 0.05 0.06 0.05 0.15 0.46 0.71 1.03 1.33 1.29 1.43 1.91 1.70 1.64 1.51 1.30 1.13 0.92 0.70 0.64 0.66 0.54 0.46
0.00 0.01 0.01 0.01 0.04 0.10 0.01 0.01 0.01 0.01 0.01 0.00 0.02 0.10 0.24 0.19 0.14 0.09 0.06 0.04 0.02 0.02 0.03 0.04 0.05 0.14 0.21 0.39 0.66 0.82 0.86 0.94 1.58 2.03 2.38 2.68 2.57 2.24 1.52 1.09 0.95 0.91 0.79 0.66
0.00 0.00 0.00 0.04 0.10 0.02 0.00 0.00 0.00 0.01 0.04 0.03 0.02 0.08 0.18 0.22 0.15 0.09 0.10 0.04 0.02 0.05 0.03 0.04 0.08 0.09 0.19 0.24 0.30 0.40 0.54 0.68 0.70 1.09 1.62 1.72 2.16 2.20 1.54 1.06 0.89 0.87 0.92 0.85
0.00 0.00 0.00 0.00 0.01 0.04 0.01 0.00 0.00 0.00 0.00 0.00 0.01 0.08 0.20 0.10 0.03 0.02 0.02 0.05 0.02 0.03 0.04 0.06 0.07 0.08 0.08 0.13 0.21 0.24 0.27 0.31 0.16 0.19 0.34 0.37 0.40 0.60 0.58 0.47 0.38 0.31 0.30 0.32
0.00 0.00 0.01 0.00 0.01 0.01 0.00 0.00 0.00 0.00 0.00 0.00 0.01 0.02 0.03 0.02 0.01 0.01 0.00 0.01 0.02 0.07 0.07 0.04 0.02 0.02 0.02 0.05 0.14 0.14 0.17 0.28 0.18 0.17 0.13 0.21 0.28 0.41 0.51 0.61 0.54 0.29 0.16 0.15
0.00 0.00 0.00 0.01 0.00 0.01 0.01 0.01 0.00 0.00 0.00 0.00 0.00 0.01 0.03 0.00 0.01 0.00 0.01 0.00 0.00 0.01 0.03 0.02 0.01 0.00 0.00 0.01 0.03 0.08 0.12 0.19 0.14 0.11 0.09 0.12 0.09 0.10 0.20 0.22 0.42 0.55 0.68 0.47

GFSCGP_prec_precacc24_141.txt.gz
Total_Precipitation_Accumulation
0.00 0.00 0.00 0.00 0.00 0.00 0.02 0.14 0.21 0.35 0.44 0.52 0.42 0.59 0.31 0.22 0.39 0.16 0.06 0.02 0.03 0.04 0.02 0.01 0.03 0.01 0.00 0.00 0.02 0.07 0.16 0.16 0.01 0.00 0.00 0.00 0.00 0.00 0.00 0.00 0.00 0.11 0.28 0.17
0.00 0.00 0.00 0.00 0.00 0.00 0.01 0.14 0.30 0.27 0.16 0.16 0.19 0.31 0.52 0.25 0.32 0.12 0.05 0.05 0.03 0.04 0.09 0.01 0.01 0.01 0.00 0.00 0.00 0.13 0.21 0.15 0.03 0.00 0.00 0.00 0.00 0.01 0.08 0.05 0.05 0.07 0.09 0.07
0.00 0.00 0.00 0.00 0.00 0.00 0.02 0.09 0.16 0.29 0.12 0.06 0.08 0.13 0.28 0.25 0.26 0.15 0.04 0.02 0.01 0.01 0.08 0.10 0.03 0.00 0.00 0.00 0.00 0.01 0.05 0.10 0.06 0.00 0.00 0.02 0.07 0.11 0.20 0.18 0.05 0.04 0.05 0.04
0.00 0.00 0.00 0.00 0.00 0.00 0.01 0.03 0.09 0.25 0.14 0.15 0.10 0.14 0.16 0.21 0.13 0.11 0.05 0.03 0.01 0.01 0.14 0.08 0.01 0.01 0.00 0.00 0.00 0.00 0.04 0.10 0.10 0.03 0.00 0.02 0.02 0.04 0.06 0.04 0.05 0.01 0.03 0.05
0.00 0.00 0.00 0.00 0.00 0.00 0.00 0.02 0.10 0.23 0.18 0.08 0.04 0.08 0.14 0.38 0.31 0.07 0.02 0.03 0.02 0.01 0.10 0.06 0.03 0.02 0.01 0.00 0.00 0.00 0.02 0.13 0.09 0.13 0.11 0.09 0.00 0.01 0.02 0.05 0.07 0.06 0.08 0.09
0.00 0.00 0.00 0.00 0.00 0.00 0.00 0.05 0.17 0.17 0.08 0.03 0.03 0.05 0.32 0.44 0.25 0.05 0.01 0.01 0.01 0.00 0.00 0.03 0.06 0.01 0.03 0.00 0.00 0.00 0.01 0.06 0.11 0.16 0.14 0.08 0.06 0.04 0.05 0.06 0.02 0.01 0.02 0.03
0.00 0.00 0.00 0.00 0.00 0.00 0.00 0.02 0.11 0.11 0.06 0.07 0.08 0.12 0.16 0.07 0.02 0.03 0.05 0.01 0.03 0.01 0.00 0.03 0.03 0.02 0.02 0.03 0.02 0.00 0.00 0.01 0.03 0.02 0.03 0.04 0.08 0.08 0.15 0.13 0.06 0.05 0.01 0.01
0.00 0.00 0.00 0.00 0.00 0.00 0.00 0.00 0.03 0.08 0.15 0.18 0.12 0.44 0.21 0.06 0.02 0.02 0.02 0.04 0.05 0.02 0.01 0.02 0.03 0.01 0.01 0.00 0.00 0.00 0.00 0.00 0.01 0.02 0.04 0.13 0.18 0.14 0.08 0.07 0.06 0.01 0.00 0.01
0.00 0.00 0.00 0.00 0.00 0.00 0.00 0.01 0.04 0.03 0.05 0.10 0.11 0.14 0.10 0.03 0.01 0.01 0.03 0.06 0.03 0.02 0.02 0.03 0.01 0.01 0.00 0.00 0.00 0.00 0.00 0.00 0.00 0.00 0.04 0.09 0.11 0.05 0.04 0.10 0.13 0.09 0.05 0.01
0.00 0.00 0.00 0.00 0.00 0.01 0.00 0.01 0.03 0.03 0.15 0.13 0.26 0.60 0.30 0.10 0.42 0.10 0.07 0.06 0.01 0.03 0.03 0.04 0.02 0.05 0.01 0.00 0.00 0.00 0.00 0.00 0.00 0.00 0.00 0.00 0.00 0.00 0.13 0.19 0.21 0.08 0.21 0.17
0.00 0.00 0.01 0.00 0.02 0.03 0.01 0.00 0.01 0.01 0.08 0.25 0.32 0.55 0.59 0.19 0.47 0.39 0.23 0.07 0.02 0.01 0.01 0.02 0.01 0.03 0.07 0.02 0.00 0.00 0.00 0.00 0.00 0.00 0.00 0.01 0.01 0.00 0.08 0.11 0.12 0.18 0.19 0.17
0.00 0.00 0.01 0.01 0.03 0.09 0.12 0.07 0.06 0.02 0.16 0.21 0.24 0.40 0.36 0.20 0.33 0.48 1.04 0.42 0.24 0.13 0.03 0.09 0.04 0.05 0.06 0.13 0.06 0.08 0.01 0.00 0.00 0.00 0.00 0.00 0.01 0.02 0.03 0.02 0.03 0.13 0.24 0.17
0.00 0.00 0.01 0.05 0.07 0.03 0.00 0.02 0.17 0.14 0.14 0.07 0.11 0.11 0.05 0.11 0.49 0.75 0.86 0.68 0.26 0.37 0.12 0.16 0.22 0.16 0.15 0.21 0.32 0.26 0.12 0.06 0.02 0.00 0.00 0.00 0.00 0.00 0.01 0.03 0.06 0.12 0.17 0.13
0.00 0.00 0.00 0.03 0.08 0.07 0.02 0.02 0.00 0.05 0.09 0.03 0.01 0.06 0.26 0.34 0.39 0.22 0.18 0.18 0.11 0.10 0.09 0.16 0.35 0.87 0.68 0.64 0.71 1.10 0.49 0.24 0.18 0.09 0.02 0.00 0.00 0.02 0.03 0.01 0.01 0.13 0.17 0.13
0.00 0.00 0.00 0.00 0.00 0.00 0.02 0.02 0.02 0.01 0.01 0.04 0.29 0.05 0.60 0.30 0.09 0.04 0.09 0.14 0.12 0.19 0.28 0.35 0.30 0.45 0.90 1.08 1.46 2.14 1.40 0.67 0.43 0.22 0.18 0.12 0.08 0.09 0.09 0.14 0.21 0.14 0.20 0.22
0.00 0.00 0.00 0.00 0.00 0.00 0.00 0.00 0.01 0.04 0.12 0.07 0.24 0.31 0.18 0.09 0.06 0.14 0.20 0.33 0.38 0.35 0.35 0.37 0.53 0.75 0.72 0.62 0.70 1.13 1.90 2.13 1.39 0.87 0.47 0.44 0.34 0.59 0.51 0.39 0.31 0.38 0.40 0.39
0.00 0.00 0.00 0.00 0.01 0.00 0.00 0.00 0.01 0.00 0.01 0.01 0.06 0.47 0.37 0.36 0.14 0.14 0.19 0.33 0.70 0.81 0.70 0.41 0.22 0.37 0.57 0.58 0.55 0.45 0.69 1.41 1.76 2.21 1.66 0.78 0.44 0.47 0.56 0.64 0.69 0.68 0.55 0.54
0.00 0.00 0.00 0.00 0.01 0.05 0.03 0.05 0.01 0.01 0.01 0.11 0.20 0.18 0.30 0.18 0.15 0.12 0.12 0.12 0.33 0.58 0.86 0.75 0.53 0.55 0.54 0.45 0.53 0.50 0.63 0.69 0.86 1.33 1.72 1.60 0.77 0.62 0.53 0.60 0.50 0.40 0.40 0.44
0.00 0.00 0.00 0.00 0.00 0.00 0.01 0.04 0.01 0.00 0.03 0.06 0.14 0.12 0.33 0.18 0.18 0.11 0.12 0.11 0.06 0.19 0.22 0.57 1.12 0.88 1.09 0.98 1.06 0.88 0.95 0.83 0.86 0.95 0.91 0.94 1.04 1.22 0.94 0.70 0.60 0.62 0.59 0.50
0.00 0.00 0.00 0.00 0.00 0.00 0.01 0.01 0.00 0.00 0.07 0.08 0.10 0.06 0.46 0.18 0.26 0.25 0.06 0.03 0.02 0.03 0.08 0.09 0.16 0.46 0.85 1.49 1.56 1.72 1.83 1.71 1.16 1.04 1.08 1.02 0.94 1.10 1.27 1.47 1.29 1.04 1.26 1.28
0.00 0.00 0.00 0.00 0.01 0.00 0.00 0.01 0.00 0.01 0.05 0.03 0.02 0.07 0.29 0.07 0.05 0.04 0.01 0.00 0.00 0.00 0.00 0.01 0.03 0.09 0.38 0.63 0.98 1.31 1.26 1.43 1.91 1.68 1.62 1.55 1.39 1.27 1.08 0.82 0.70 0.70 0.56 0.47
0.00 0.00 0.00 0.00 0.00 0.02 0.00 0.00 0.00 0.01 0.02 0.03 0.02 0.04 0.16 0.12 0.08 0.04 0.00 0.00 0.00 0.00 0.00 0.02 0.04 0.10 0.16 0.35 0.63 0.80 0.85 0.93 1.60 2.03 2.38 2.70 2.71 2.54 1.67 1.17 1.00 0.94 0.80 0.66
0.00 0.00 0.00 0.00 0.01 0.01 0.00 0.00 0.00 0.01 0.03 0.03 0.02 0.02 0.02 0.04 0.04 0.01 0.00 0.00 0.00 0.00 0.00 0.01 0.03 0.06 0.15 0.22 0.28 0.39 0.54 0.68 0.70 1.09 1.61 1.72 2.19 2.33 1.82 1.30 1.06 0.95 0.95 0.86
0.00 0.00 0.00 0.00 0.00 0.01 0.01 0.00 0.00 0.00 0.01 0.05 0.03 0.02 0.01 0.00 0.00 0.00 0.00 0.00 0.00 0.00 0.01 0.01 0.03 0.05 0.06 0.13 0.21 0.24 0.27 0.31 0.17 0.21 0.34 0.38 0.40 0.60 0.60 0.52 0.47 0.39 0.32 0.32
0.00 0.00 0.01 0.00 0.00 0.00 0.01 0.00 0.00 0.00 0.00 0.00 0.01 0.01 0.00 0.00 0.00 0.00 0.00 0.00 0.00 0.00 0.00 0.01 0.01 0.02 0.02 0.05 0.14 0.15 0.17 0.27 0.17 0.17 0.14 0.21 0.27 0.41 0.51 0.61 0.53 0.29 0.16 0.15
0.01 0.00 0.00 0.00 0.00 0.01 0.01 0.01 0.00 0.00 0.00 0.00 0.00 0.01 0.00 0.00 0.00 0.00 0.00 0.00 0.00 0.00 0.01 0.02 0.01 0.00 0.00 0.01 0.03 0.09 0.12 0.20 0.15 0.12 0.09 0.11 0.08 0.09 0.18 0.19 0.40 0.55 0.68 0.47

GFSCGP_prec_precacc24_147.txt.gz
Total_Precipitation_Accumulation
0.00 0.00 0.00 0.00 0.00 0.00 0.00 0.00 0.03 0.18 0.22 0.14 0.11 0.21 0.22 0.13 0.27 0.14 0.06 0.03 0.04 0.05 0.02 0.01 0.03 0.01 0.00 0.00 0.02 0.07 0.16 0.17 0.03 0.01 0.02 0.07 0.00 0.00 0.00 0.00 0.00 0.11 0.27 0.10
0.00 0.00 0.00 0.00 0.00 0.00 0.00 0.02 0.04 0.21 0.12 0.08 0.05 0.04 0.20 0.23 0.27 0.10 0.04 0.05 0.04 0.04 0.10 0.01 0.01 0.01 0.00 0.00 0.00 0.13 0.21 0.15 0.03 0.00 0.00 0.03 0.03 0.00 0.02 0.01 0.03 0.06 0.08 0.05
0.00 0.00 0.00 0.00 0.00 0.00 0.01 0.02 0.04 0.10 0.08 0.04 0.07 0.09 0.07 0.20 0.28 0.13 0.02 0.02 0.01 0.03 0.08 0.10 0.03 0.00 0.00 0.00 0.00 0.01 0.05 0.10 0.06 0.00 0.00 0.04 0.09 0.10 0.13 0.09 0.04 0.01 0.04 0.01
0.00 0.00 0.00 0.00 0.00 0.00 0.00 0.00 0.00 0.06 0.07 0.09 0.09 0.13 0.09 0.09 0.16 0.14 0.04 0.00 0.01 0.02 0.14 0.08 0.02 0.01 0.00 0.00 0.00 0.00 0.04 0.10 0.10 0.03 0.00 0.02 0.01 0.02 0.04 0.04 0.05 0.00 0.00 0.03
0.00 0.00 0.00 0.00 0.00 0.00 0.00 0.00 0.02 0.03 0.07 0.05 0.03 0.06 0.14 0.34 0.32 0.13 0.02 0.00 0.02 0.04 0.10 0.07 0.05 0.02 0.01 0.00 0.00 0.00 0.02 0.13 0.09 0.12 0.11 0.09 0.00 0.00 0.02 0.02 0.05 0.04 0.02 0.09
0.00 0.00 0.00 0.00 0.00 0.00 0.00 0.02 0.09 0.06 0.04 0.03 0.01 0.03 0.30 0.45 0.28 0.13 0.07 0.04 0.01 0.02 0.01 0.03 0.15 0.08 0.06 0.00 0.00 0.00 0.01 0.06 0.11 0.15 0.14 0.08 0.06 0.04 0.04 0.03 0.02 0.00 0.01 0.03
0.00 0.00 0.00 0.00 0.00 0.00 0.00 0.01 0.06 0.06 0.03 0.02 0.03 0.05 0.15 0.09 0.05 0.02 0.09 0.07 0.04 0.01 0.01 0.04 0.07 0.04 0.03 0.03 0.03 0.00 0.00 0.01 0.03 0.02 0.03 0.04 0.08 0.08 0.12 0.08 0.02 0.01 0.01 0.01
0.00 0.00 0.00 0.00 0.00 0.00 0.00 0.00 0.02 0.07 0.11 0.15 0.06 0.11 0.16 0.12 0.04 0.03 0.04 0.10 0.11 0.05 0.01 0.03 0.03 0.05 0.01 0.00 0.00 0.00 0.00 0.00 0.01 0.02 0.04 0.13 0.18 0.14 0.09 0.05 0.04 0.01 0.00 0.01
0.00 0.00 0.00 0.00 0.00 0.00 0.00 0.01 0.04 0.03 0.04 0.10 0.10 0.09 0.06 0.05 0.01 0.03 0.07 0.15 0.13 0.04 0.02 0.03 0.02 0.02 0.00 0.00 0.00 0.00 0.00 0.00 0.00 0.00 0.04 0.09 0.11 0.05 0.04 0.11 0.13 0.06 0.02 0.01
0.00 0.00 0.00 0.00 0.00 0.01 0.00 0.01 0.03 0.03 0.15 0.13 0.26 0.59 0.28 0.10 0.42 0.12 0.13 0.18 0.13 0.09 0.03 0.02 0.00 0.05 0.02 0.00 0.01 0.02 0.00 0.00 0.00 0.00 0.00 0.00 0.00 0.00 0.13 0.21 0.21 0.08 0.19 0.14
0.00 0.00 0.01 0.00 0.02 0.03 0.01 0.00 0.01 0.01 0.08 0.25 0.32 0.55 0.59 0.19 0.47 0.39 0.27 0.14 0.11 0.08 0.04 0.02 0.02 0.03 0.11 0.05 0.01 0.03 0.00 0.00 0.00 0.00 0.00 0.01 0.01 0.00 0.08 0.12 0.10 0.13 0.18 0.17
0.00 0.00 0.01 0.01 0.03 0.09 0.12 0.07 0.06 0.02 0.16 0.21 0.24 0.40 0.36 0.20 0.33 0.48 1.18 0.54 0.42 0.17 0.05 0.10 0.07 0.08 0.08 0.18 0.07 0.15 0.09 0.01 0.00 0.00 0.00 0.00 0.01 0.02 0.03 0.02 0.03 0.08 0.21 0.16
0.00 0.00 0.01 0.04 0.06 0.03 0.00 0.02 0.17 0.14 0.14 0.07 0.11 0.11 0.05 0.11 0.49 0.75 1.39 1.21 0.47 0.54 0.29 0.24 0.28 0.23 0.20 0.23 0.37 0.39 0.35 0.27 0.22 0.09 0.01 0.01 0.00 0.00 0.01 0.03 0.05 0.08 0.16 0.12
0.00 0.00 0.00 0.03 0.08 0.07 0.02 0.02 0.00 0.05 0.09 0.03 0.01 0.06 0.26 0.34 0.39 0.22 0.37 1.09 0.81 0.51 0.70 0.47 0.72 1.14 0.94 0.86 1.03 1.40 1.01 0.55 0.41 0.26 0.15 0.07 0.02 0.00 0.00 0.00 0.01 0.11 0.16 0.15
0.00 0.00 0.00 0.00 0.00 0.00 0.02 0.02 0.02 0.01 0.01 0.04 0.29 0.05 0.60 0.30 0.08 0.03 0.14 0.25 0.32 0.42 0.55 0.57 0.61 0.71 1.42 1.56 1.84 1.92 2.15 1.46 0.73 0.45 0.24 0.11 0.08 0.06 0.05 0.05 0.05 0.06 0.13 0.15
0.00 0.00 0.00 0.00 0.00 0.00 0.00 0.00 0.01 0.04 0.12 0.07 0.23 0.30 0.16 0.06 0.05 0.09 0.18 0.37 0.43 0.35 0.30 0.52 0.78 0.91 0.88 0.97 1.11 1.71 2.88 3.38 1.97 1.01 0.51 0.38 0.28 0.25 0.24 0.24 0.26 0.21 0.16 0.14
0.00 0.00 0.00 0.00 0.01 0.00 0.00 0.00 0.01 0.00 0.01 0.01 0.03 0.42 0.32 0.30 0.12 0.15 0.19 0.25 0.36 0.61 0.53 0.30 0.27 0.37 0.47 0.52 0.46 0.33 0.71 1.75 2.33 2.47 1.73 0.87 0.51 0.42 0.41 0.45 0.56 0.44 0.37 0.48
0.00 0.00 0.00 0.00 0.01 0.04 0.03 0.05 0.01 0.01 0.01 0.11 0.18 0.16 0.28 0.16 0.07 0.06 0.05 0.10 0.27 0.34 0.48 0.32 0.23 0.19 0.22 0.21 0.34 0.27 0.26 0.35 0.74 1.46 2.00 1.91 0.91 0.73 0.62 0.64 0.56 0.44 0.46 0.42
0.00 0.00 0.00 0.00 0.00 0.00 0.01 0.04 0.01 0.00 0.04 0.06 0.14 0.10 0.26 0.09 0.11 0.05 0.02 0.02 0.09 0.20 0.21 0.40 0.61 0.28 0.33 0.21 0.31 0.43 0.48 0.44 0.46 0.71 0.90 1.26 1.32 1.50 1.23 0.89 0.82 0.75 0.64 0.53
0.00 0.00 0.00 0.00 0.00 0.00 0.01 0.01 0.00 0.00 0.07 0.08 0.10 0.05 0.44 0.17 0.24 0.23 0.01 0.00 0.01 0.04 0.09 0.05 0.09 0.18 0.28 0.31 0.28 0.52 0.94 0.86 0.61 0.72 0.77 0.75 0.92 1.18 1.65 1.92 1.66 1.31 1.25 0.98
0.00 0.00 0.00 0.00 0.00 0.00 0.00 0.01 0.00 0.01 0.05 0.03 0.02 0.06 0.27 0.06 0.05 0.04 0.00 0.00 0.00 0.00 0.00 0.01 0.01 0.03 0.08 0.12 0.21 0.55 0.62 0.84 1.05 0.96 0.96 1.10 1.11 1.11 1.29 1.33 1.14 1.04 0.88 0.74
0.00 0.00 0.00 0.00 0.00 0.01 0.00 0.00 0.00 0.01 0.02 0.06 0.05 0.06 0.16 0.10 0.02 0.01 0.00 0.00 0.00 0.00 0.00 0.00 0.01 0.01 0.02 0.05 0.15 0.29 0.27 0.26 0.55 1.05 1.43 2.09 2.39 2.38 1.75 1.40 1.59 1.59 1.23 1.05
0.00 0.00 0.00 0.00 0.01 0.01 0.00 0.00 0.00 0.02 0.03 0.05 0.01 0.01 0.00 0.01 0.01 0.00 0.00 0.00 0.00 0.00 0.00 0.00 0.00 0.01 0.03 0.06 0.10 0.14 0.14 0.24 0.38 0.78 1.27 1.45 2.09 2.28 1.86 1.56 1.45 1.38 1.42 1.31
0.00 0.00 0.00 0.00 0.00 0.00 0.00 0.00 0.01 0.00 0.02 0.07 0.03 0.01 0.00 0.00 0.01 0.00 0.00 0.00 0.00 0.00 0.00 0.00 0.01 0.01 0.03 0.07 0.16 0.18 0.22 0.28 0.17 0.23 0.34 0.34 0.36 0.48 0.50 0.48 0.47 0.54 0.67 0.76
0.00 0.00 0.01 0.00 0.00 0.00 0.01 0.01 0.00 0.00 0.00 0.01 0.00 0.00 0.00 0.01 0.01 0.01 0.00 0.00 0.00 0.00 0.00 0.00 0.00 0.00 0.01 0.05 0.13 0.15 0.18 0.27 0.16 0.21 0.18 0.22 0.26 0.39 0.49 0.57 0.48 0.27 0.17 0.22
0.01 0.00 0.00 0.00 0.00 0.01 0.00 0.00 0.00 0.00 0.00 0.00 0.00 0.00 0.00 0.00 0.00 0.00 0.00 0.00 0.00 0.00 0.00 0.01 0.00 0.00 0.00 0.01 0.03 0.09 0.13 0.20 0.16 0.11 0.08 0.10 0.08 0.08 0.18 0.18 0.37 0.51 0.65 0.46